ORBCOMM FM113 [+] (41185 NORAD) Tracking and Keplerian Element Data

This shows tracking and keplerian element data for the satellite.

Feedback or suggestion? Click here.




ElementValue
Catalog41185
NameORBCOMM FM113 [+]
Epoch Orbit18308
Epoch Day145.50323779
Epoch Year2019
RAAN172.2635
Inclination47.0002
Eccentricity0.0001889
Argument of Perigee343.9155
Mean Anonmoly16.1669
Mean Motion14.54737916
Decay Rate-2.5E-07
L11 41185U 15081G 19145.50323779 -.00000025 00000-0 32504-4 0 9996
L22 41185 47.0002 172.2635 0001889 343.9155 16.1669 14.54737916183082

Live tracking and technical data element details for ORBCOMM FM113 [+] (NORAD 41185). ORBCOMM FM113 [+] can be tracked NOW for your location showing map with azimuth and elevation plus other details from your city location.

Track the satellite on the map from your city or location and see movement details for azimuth, elevation, latitude, longitude, range, height, and movement on the map or in text.







IsCatalogInMostPopularTable: catalog: 41185, numindb: 220
Update: records affected: 1



GetName: 41185 ORBCOMM FM113 [+]

Hit Count: updated at: Sun, 26 May 2019 19:24:44 GMT